Find OneWeb SL0366

NORAD ID: 49292 Int'l Des: 2021-090 Owner: ONEWEBN Country: UK Constellation: oneweb operational
LEOCIRCULARPOLARONEWEB_TYPE

リアルタイム位置

3D地球を読み込み中...

OneWeb SL0366について

説明を読み込み中...

次回通過

Passes for default location (London). Set your location on the main map for personalized predictions.

高度履歴

Loading altitude history...

軌道要素

1 49292U 21090P 26125.50545377 -.00000218 00000-0 -62362-3 0 9995
2 49292 87.8920 298.2245 0001741 94.5305 265.6024 13.14503232221951
Epoch: May 5, 2026 • Age: 22 hours

現在のステータス

高度 1215.0 km
速度 7.25 km/s
衛星直下点 60.37°N, 77.94°W
打ち上げ日 Oct 14, 2021
運用期間 4.5 years
タイプ internet

技術仕様

分類 Payload
質量 148.00 kg
乾燥質量 140.00 kg
総質量 148.00 kg
長さ 1.30 m
直径 1.00 m
スパン 5.00 m
形状 Trapezoid+2 pan
製造者 ONEWUS
バスタイプ ARROW
フェーズステータス In Orbit
所有者/国 ONEWEBN/UK

Most Searched